Index of /20260422/WXO-DD/model_gdps/15km/00/216
Name Last modified Size Description
Parent Directory -
20260422T00Z_MSC_GDPS_AbsoluteVorticity_IsbL-0200_LatLon0.15_PT216H.grib2 2026-04-22 04:48 1.5M
20260422T00Z_MSC_GDPS_AbsoluteVorticity_IsbL-0250_LatLon0.15_PT216H.grib2 2026-04-22 04:48 1.3M
20260422T00Z_MSC_GDPS_AbsoluteVorticity_IsbL-0500_LatLon0.15_PT216H.grib2 2026-04-22 04:48 1.5M
20260422T00Z_MSC_GDPS_AbsoluteVorticity_IsbL-0700_LatLon0.15_PT216H.grib2 2026-04-22 04:48 1.3M
20260422T00Z_MSC_GDPS_AbsoluteVorticity_IsbL-0850_LatLon0.15_PT216H.grib2 2026-04-22 04:48 1.6M
20260422T00Z_MSC_GDPS_AirTemp-Max_AGL-2m_LatLon0.15_PT216H.grib2 2026-04-22 04:48 744K
20260422T00Z_MSC_GDPS_AirTemp-Min_AGL-2m_LatLon0.15_PT216H.grib2 2026-04-22 04:48 793K
20260422T00Z_MSC_GDPS_AirTemp_AGL-120m_LatLon0.15_PT216H.grib2 2026-04-22 04:48 908K
20260422T00Z_MSC_GDPS_AirTemp_AGL-2m_LatLon0.15_PT216H.grib2 2026-04-22 04:48 1.0M
20260422T00Z_MSC_GDPS_AirTemp_AGL-40m_LatLon0.15_PT216H.grib2 2026-04-22 04:48 813K
20260422T00Z_MSC_GDPS_AirTemp_AGL-80m_LatLon0.15_PT216H.grib2 2026-04-22 04:48 801K
20260422T00Z_MSC_GDPS_AirTemp_IsbL-0001_LatLon0.15_PT216H.grib2 2026-04-22 04:48 714K
20260422T00Z_MSC_GDPS_AirTemp_IsbL-0005_LatLon0.15_PT216H.grib2 2026-04-22 04:48 688K
20260422T00Z_MSC_GDPS_AirTemp_IsbL-0010_LatLon0.15_PT216H.grib2 2026-04-22 04:48 758K
20260422T00Z_MSC_GDPS_AirTemp_IsbL-0020_LatLon0.15_PT216H.grib2 2026-04-22 04:48 789K
20260422T00Z_MSC_GDPS_AirTemp_IsbL-0030_LatLon0.15_PT216H.grib2 2026-04-22 04:48 753K
20260422T00Z_MSC_GDPS_AirTemp_IsbL-0050_LatLon0.15_PT216H.grib2 2026-04-22 04:48 808K
20260422T00Z_MSC_GDPS_AirTemp_IsbL-0100_LatLon0.15_PT216H.grib2 2026-04-22 04:48 962K
20260422T00Z_MSC_GDPS_AirTemp_IsbL-0150_LatLon0.15_PT216H.grib2 2026-04-22 04:48 1.0M
20260422T00Z_MSC_GDPS_AirTemp_IsbL-0175_LatLon0.15_PT216H.grib2 2026-04-22 04:48 966K
20260422T00Z_MSC_GDPS_AirTemp_IsbL-0200_LatLon0.15_PT216H.grib2 2026-04-22 04:48 1.0M
20260422T00Z_MSC_GDPS_AirTemp_IsbL-0225_LatLon0.15_PT216H.grib2 2026-04-22 04:48 1.0M
20260422T00Z_MSC_GDPS_AirTemp_IsbL-0250_LatLon0.15_PT216H.grib2 2026-04-22 04:48 1.0M
20260422T00Z_MSC_GDPS_AirTemp_IsbL-0275_LatLon0.15_PT216H.grib2 2026-04-22 04:48 1.0M
20260422T00Z_MSC_GDPS_AirTemp_IsbL-0300_LatLon0.15_PT216H.grib2 2026-04-22 04:48 1.0M
20260422T00Z_MSC_GDPS_AirTemp_IsbL-0350_LatLon0.15_PT216H.grib2 2026-04-22 04:48 932K
20260422T00Z_MSC_GDPS_AirTemp_IsbL-0400_LatLon0.15_PT216H.grib2 2026-04-22 04:48 941K
20260422T00Z_MSC_GDPS_AirTemp_IsbL-0450_LatLon0.15_PT216H.grib2 2026-04-22 04:48 962K
20260422T00Z_MSC_GDPS_AirTemp_IsbL-0500_LatLon0.15_PT216H.grib2 2026-04-22 04:48 1.0M
20260422T00Z_MSC_GDPS_AirTemp_IsbL-0550_LatLon0.15_PT216H.grib2 2026-04-22 04:48 799K
20260422T00Z_MSC_GDPS_AirTemp_IsbL-0600_LatLon0.15_PT216H.grib2 2026-04-22 04:48 889K
20260422T00Z_MSC_GDPS_AirTemp_IsbL-0650_LatLon0.15_PT216H.grib2 2026-04-22 04:48 917K
20260422T00Z_MSC_GDPS_AirTemp_IsbL-0700_LatLon0.15_PT216H.grib2 2026-04-22 04:48 951K
20260422T00Z_MSC_GDPS_AirTemp_IsbL-0750_LatLon0.15_PT216H.grib2 2026-04-22 04:48 1.0M
20260422T00Z_MSC_GDPS_AirTemp_IsbL-0800_LatLon0.15_PT216H.grib2 2026-04-22 04:48 1.1M
20260422T00Z_MSC_GDPS_AirTemp_IsbL-0850_LatLon0.15_PT216H.grib2 2026-04-22 04:48 1.1M
20260422T00Z_MSC_GDPS_AirTemp_IsbL-0875_LatLon0.15_PT216H.grib2 2026-04-22 04:48 1.2M
20260422T00Z_MSC_GDPS_AirTemp_IsbL-0900_LatLon0.15_PT216H.grib2 2026-04-22 04:48 1.2M
20260422T00Z_MSC_GDPS_AirTemp_IsbL-0925_LatLon0.15_PT216H.grib2 2026-04-22 04:48 1.1M
20260422T00Z_MSC_GDPS_AirTemp_IsbL-0950_LatLon0.15_PT216H.grib2 2026-04-22 04:48 1.1M
20260422T00Z_MSC_GDPS_AirTemp_IsbL-0970_LatLon0.15_PT216H.grib2 2026-04-22 04:48 1.1M
20260422T00Z_MSC_GDPS_AirTemp_IsbL-0985_LatLon0.15_PT216H.grib2 2026-04-22 04:48 1.1M
20260422T00Z_MSC_GDPS_AirTemp_IsbL-1000_LatLon0.15_PT216H.grib2 2026-04-22 04:48 1.1M
20260422T00Z_MSC_GDPS_AirTemp_IsbL-1015_LatLon0.15_PT216H.grib2 2026-04-22 04:48 1.1M
20260422T00Z_MSC_GDPS_Albedo_Sfc_LatLon0.15_PT216H.grib2 2026-04-22 04:48 246K
20260422T00Z_MSC_GDPS_CAPE_Sfc_LatLon0.15_PT216H.grib2 2026-04-22 04:48 4.0M
20260422T00Z_MSC_GDPS_CIN_Sfc_LatLon0.15_PT216H.grib2 2026-04-22 04:48 2.9M
20260422T00Z_MSC_GDPS_CloudWater_EAtm_LatLon0.15_PT216H.grib2 2026-04-22 04:48 533K
20260422T00Z_MSC_GDPS_ConvectivePrecip-Accum_Sfc_LatLon0.15_PT216H.grib2 2026-04-22 04:48 3.9M
20260422T00Z_MSC_GDPS_DewPointDepression_AGL-2m_LatLon0.15_PT216H.grib2 2026-04-22 04:48 756K
20260422T00Z_MSC_GDPS_DewPointDepression_IsbL-0010_LatLon0.15_PT216H.grib2 2026-04-22 04:48 71K
20260422T00Z_MSC_GDPS_DewPointDepression_IsbL-0020_LatLon0.15_PT216H.grib2 2026-04-22 04:48 59K
20260422T00Z_MSC_GDPS_DewPointDepression_IsbL-0030_LatLon0.15_PT216H.grib2 2026-04-22 04:48 76K
20260422T00Z_MSC_GDPS_DewPointDepression_IsbL-0050_LatLon0.15_PT216H.grib2 2026-04-22 04:48 373K
20260422T00Z_MSC_GDPS_DewPointDepression_IsbL-0100_LatLon0.15_PT216H.grib2 2026-04-22 04:48 397K
20260422T00Z_MSC_GDPS_DewPointDepression_IsbL-0150_LatLon0.15_PT216H.grib2 2026-04-22 04:48 457K
20260422T00Z_MSC_GDPS_DewPointDepression_IsbL-0175_LatLon0.15_PT216H.grib2 2026-04-22 04:48 558K
20260422T00Z_MSC_GDPS_DewPointDepression_IsbL-0200_LatLon0.15_PT216H.grib2 2026-04-22 04:48 676K
20260422T00Z_MSC_GDPS_DewPointDepression_IsbL-0225_LatLon0.15_PT216H.grib2 2026-04-22 04:48 797K
20260422T00Z_MSC_GDPS_DewPointDepression_IsbL-0250_LatLon0.15_PT216H.grib2 2026-04-22 04:48 871K
20260422T00Z_MSC_GDPS_DewPointDepression_IsbL-0275_LatLon0.15_PT216H.grib2 2026-04-22 04:48 876K
20260422T00Z_MSC_GDPS_DewPointDepression_IsbL-0300_LatLon0.15_PT216H.grib2 2026-04-22 04:48 911K
20260422T00Z_MSC_GDPS_DewPointDepression_IsbL-0350_LatLon0.15_PT216H.grib2 2026-04-22 04:48 933K
20260422T00Z_MSC_GDPS_DewPointDepression_IsbL-0400_LatLon0.15_PT216H.grib2 2026-04-22 04:48 969K
20260422T00Z_MSC_GDPS_DewPointDepression_IsbL-0450_LatLon0.15_PT216H.grib2 2026-04-22 04:48 1.0M
20260422T00Z_MSC_GDPS_DewPointDepression_IsbL-0500_LatLon0.15_PT216H.grib2 2026-04-22 04:48 1.0M
20260422T00Z_MSC_GDPS_DewPointDepression_IsbL-0550_LatLon0.15_PT216H.grib2 2026-04-22 04:48 1.0M
20260422T00Z_MSC_GDPS_DewPointDepression_IsbL-0600_LatLon0.15_PT216H.grib2 2026-04-22 04:48 1.0M
20260422T00Z_MSC_GDPS_DewPointDepression_IsbL-0650_LatLon0.15_PT216H.grib2 2026-04-22 04:48 1.1M
20260422T00Z_MSC_GDPS_DewPointDepression_IsbL-0700_LatLon0.15_PT216H.grib2 2026-04-22 04:48 1.1M
20260422T00Z_MSC_GDPS_DewPointDepression_IsbL-0750_LatLon0.15_PT216H.grib2 2026-04-22 04:48 1.1M
20260422T00Z_MSC_GDPS_DewPointDepression_IsbL-0800_LatLon0.15_PT216H.grib2 2026-04-22 04:48 1.2M
20260422T00Z_MSC_GDPS_DewPointDepression_IsbL-0850_LatLon0.15_PT216H.grib2 2026-04-22 04:48 1.1M
20260422T00Z_MSC_GDPS_DewPointDepression_IsbL-0875_LatLon0.15_PT216H.grib2 2026-04-22 04:48 1.1M
20260422T00Z_MSC_GDPS_DewPointDepression_IsbL-0900_LatLon0.15_PT216H.grib2 2026-04-22 04:48 1.1M
20260422T00Z_MSC_GDPS_DewPointDepression_IsbL-0925_LatLon0.15_PT216H.grib2 2026-04-22 04:48 1.0M
20260422T00Z_MSC_GDPS_DewPointDepression_IsbL-0950_LatLon0.15_PT216H.grib2 2026-04-22 04:48 1.0M
20260422T00Z_MSC_GDPS_DewPointDepression_IsbL-0970_LatLon0.15_PT216H.grib2 2026-04-22 04:48 1.0M
20260422T00Z_MSC_GDPS_DewPointDepression_IsbL-0985_LatLon0.15_PT216H.grib2 2026-04-22 04:48 1.0M
20260422T00Z_MSC_GDPS_DewPointDepression_IsbL-1000_LatLon0.15_PT216H.grib2 2026-04-22 04:48 970K
20260422T00Z_MSC_GDPS_DewPointDepression_IsbL-1015_LatLon0.15_PT216H.grib2 2026-04-22 04:48 908K
20260422T00Z_MSC_GDPS_DewPoint_AGL-2m_LatLon0.15_PT216H.grib2 2026-04-22 04:48 601K
20260422T00Z_MSC_GDPS_DownwardLongwaveRadiationFlux-Accum_Sfc_LatLon0.15_PT216H.grib2 2026-04-22 04:48 725K
20260422T00Z_MSC_GDPS_DownwardShortwaveRadiationFlux-Accum_NTAtm_LatLon0.15_PT216H.grib2 2026-04-22 04:48 236K
20260422T00Z_MSC_GDPS_DownwardShortwaveRadiationFlux-Accum_Sfc_LatLon0.15_PT216H.grib2 2026-04-22 04:48 914K
20260422T00Z_MSC_GDPS_FreezingRain-Accum12h_Sfc_LatLon0.15_PT216H.grib2 2026-04-22 04:48 130K
20260422T00Z_MSC_GDPS_FreezingRain-Accum24h_Sfc_LatLon0.15_PT216H.grib2 2026-04-22 04:48 194K
20260422T00Z_MSC_GDPS_FreezingRain-Accum6h_Sfc_LatLon0.15_PT216H.grib2 2026-04-22 04:48 73K
20260422T00Z_MSC_GDPS_FreezingRain-Accum_Sfc_LatLon0.15_PT216H.grib2 2026-04-22 04:48 539K
20260422T00Z_MSC_GDPS_GeopotentialHeight_IsbL-0001_LatLon0.15_PT216H.grib2 2026-04-22 04:48 380K
20260422T00Z_MSC_GDPS_GeopotentialHeight_IsbL-0005_LatLon0.15_PT216H.grib2 2026-04-22 04:48 489K
20260422T00Z_MSC_GDPS_GeopotentialHeight_IsbL-0010_LatLon0.15_PT216H.grib2 2026-04-22 04:48 476K
20260422T00Z_MSC_GDPS_GeopotentialHeight_IsbL-0020_LatLon0.15_PT216H.grib2 2026-04-22 04:48 419K
20260422T00Z_MSC_GDPS_GeopotentialHeight_IsbL-0030_LatLon0.15_PT216H.grib2 2026-04-22 04:48 573K
20260422T00Z_MSC_GDPS_GeopotentialHeight_IsbL-0050_LatLon0.15_PT216H.grib2 2026-04-22 04:48 576K
20260422T00Z_MSC_GDPS_GeopotentialHeight_IsbL-0100_LatLon0.15_PT216H.grib2 2026-04-22 04:48 616K
20260422T00Z_MSC_GDPS_GeopotentialHeight_IsbL-0150_LatLon0.15_PT216H.grib2 2026-04-22 04:48 632K
20260422T00Z_MSC_GDPS_GeopotentialHeight_IsbL-0175_LatLon0.15_PT216H.grib2 2026-04-22 04:48 636K
20260422T00Z_MSC_GDPS_GeopotentialHeight_IsbL-0200_LatLon0.15_PT216H.grib2 2026-04-22 04:48 640K
20260422T00Z_MSC_GDPS_GeopotentialHeight_IsbL-0225_LatLon0.15_PT216H.grib2 2026-04-22 04:48 638K
20260422T00Z_MSC_GDPS_GeopotentialHeight_IsbL-0250_LatLon0.15_PT216H.grib2 2026-04-22 04:48 644K
20260422T00Z_MSC_GDPS_GeopotentialHeight_IsbL-0275_LatLon0.15_PT216H.grib2 2026-04-22 04:48 646K
20260422T00Z_MSC_GDPS_GeopotentialHeight_IsbL-0300_LatLon0.15_PT216H.grib2 2026-04-22 04:48 637K
20260422T00Z_MSC_GDPS_GeopotentialHeight_IsbL-0350_LatLon0.15_PT216H.grib2 2026-04-22 04:48 635K
20260422T00Z_MSC_GDPS_GeopotentialHeight_IsbL-0400_LatLon0.15_PT216H.grib2 2026-04-22 04:48 625K
20260422T00Z_MSC_GDPS_GeopotentialHeight_IsbL-0450_LatLon0.15_PT216H.grib2 2026-04-22 04:48 616K
20260422T00Z_MSC_GDPS_GeopotentialHeight_IsbL-0500_LatLon0.15_PT216H.grib2 2026-04-22 04:48 535K
20260422T00Z_MSC_GDPS_GeopotentialHeight_IsbL-0550_LatLon0.15_PT216H.grib2 2026-04-22 04:48 529K
20260422T00Z_MSC_GDPS_GeopotentialHeight_IsbL-0600_LatLon0.15_PT216H.grib2 2026-04-22 04:48 524K
20260422T00Z_MSC_GDPS_GeopotentialHeight_IsbL-0650_LatLon0.15_PT216H.grib2 2026-04-22 04:48 689K
20260422T00Z_MSC_GDPS_GeopotentialHeight_IsbL-0700_LatLon0.15_PT216H.grib2 2026-04-22 04:48 684K
20260422T00Z_MSC_GDPS_GeopotentialHeight_IsbL-0750_LatLon0.15_PT216H.grib2 2026-04-22 04:48 690K
20260422T00Z_MSC_GDPS_GeopotentialHeight_IsbL-0800_LatLon0.15_PT216H.grib2 2026-04-22 04:48 705K
20260422T00Z_MSC_GDPS_GeopotentialHeight_IsbL-0850_LatLon0.15_PT216H.grib2 2026-04-22 04:48 712K
20260422T00Z_MSC_GDPS_GeopotentialHeight_IsbL-0875_LatLon0.15_PT216H.grib2 2026-04-22 04:48 723K
20260422T00Z_MSC_GDPS_GeopotentialHeight_IsbL-0900_LatLon0.15_PT216H.grib2 2026-04-22 04:48 731K
20260422T00Z_MSC_GDPS_GeopotentialHeight_IsbL-0925_LatLon0.15_PT216H.grib2 2026-04-22 04:48 737K
20260422T00Z_MSC_GDPS_GeopotentialHeight_IsbL-0950_LatLon0.15_PT216H.grib2 2026-04-22 04:48 741K
20260422T00Z_MSC_GDPS_GeopotentialHeight_IsbL-0970_LatLon0.15_PT216H.grib2 2026-04-22 04:48 754K
20260422T00Z_MSC_GDPS_GeopotentialHeight_IsbL-0985_LatLon0.15_PT216H.grib2 2026-04-22 04:48 770K
20260422T00Z_MSC_GDPS_GeopotentialHeight_IsbL-1000_LatLon0.15_PT216H.grib2 2026-04-22 04:48 791K
20260422T00Z_MSC_GDPS_GeopotentialHeight_IsbL-1015_LatLon0.15_PT216H.grib2 2026-04-22 04:48 814K
20260422T00Z_MSC_GDPS_Humidex_Sfc_LatLon0.15_PT216H.grib2 2026-04-22 04:48 5.3M
20260422T00Z_MSC_GDPS_IcePellets-Accum12h_Sfc_LatLon0.15_PT216H.grib2 2026-04-22 04:48 9.9K
20260422T00Z_MSC_GDPS_IcePellets-Accum24h_Sfc_LatLon0.15_PT216H.grib2 2026-04-22 04:48 20K
20260422T00Z_MSC_GDPS_IcePellets-Accum6h_Sfc_LatLon0.15_PT216H.grib2 2026-04-22 04:48 9.2K
20260422T00Z_MSC_GDPS_IcePellets-Accum_Sfc_LatLon0.15_PT216H.grib2 2026-04-22 04:48 202K
20260422T00Z_MSC_GDPS_KIndex_Sfc_LatLon0.15_PT216H.grib2 2026-04-22 04:48 6.5M
20260422T00Z_MSC_GDPS_LatentHeatNetFlux_Sfc_LatLon0.15_PT216H.grib2 2026-04-22 04:48 866K
20260422T00Z_MSC_GDPS_LiftedIndex-MU-VT_IsbL-0500_LatLon0.15_PT216H.grib2 2026-04-22 04:48 5.3M
20260422T00Z_MSC_GDPS_NetLongwaveRadiationFlux-Accum_Sfc_LatLon0.15_PT216H.grib2 2026-04-22 04:48 909K
20260422T00Z_MSC_GDPS_NetShortwaveRadiationFlux-Accum_Sfc_LatLon0.15_PT216H.grib2 2026-04-22 04:48 892K
20260422T00Z_MSC_GDPS_O3MixingRatio_LatLon0.15_PT216H.grib2 2026-04-22 05:00 1.9M
20260422T00Z_MSC_GDPS_O3_EAtm_LatLon0.15_PT216H.grib2 2026-04-22 05:00 2.4M
20260422T00Z_MSC_GDPS_PlanetaryBoundaryLayerHeight_Sfc_LatLon0.15_PT216H.grib2 2026-04-22 04:48 2.4M
20260422T00Z_MSC_GDPS_Precip-Accum12h_Sfc_LatLon0.15_PT216H.grib2 2026-04-22 04:48 4.4M
20260422T00Z_MSC_GDPS_Precip-Accum24h_Sfc_LatLon0.15_PT216H.grib2 2026-04-22 04:48 4.6M
20260422T00Z_MSC_GDPS_Precip-Accum6h_Sfc_LatLon0.15_PT216H.grib2 2026-04-22 04:48 4.0M
20260422T00Z_MSC_GDPS_Precip-Accum_Sfc_LatLon0.15_PT216H.grib2 2026-04-22 04:48 5.1M
20260422T00Z_MSC_GDPS_PrecipRate_Sfc_LatLon0.15_PT216H.grib2 2026-04-22 04:48 3.1M
20260422T00Z_MSC_GDPS_PrecipType-Instant_Sfc_LatLon0.15_PT216H.grib2 2026-04-22 04:48 1.5M
20260422T00Z_MSC_GDPS_Pressure_MSL_LatLon0.15_PT216H.grib2 2026-04-22 04:48 825K
20260422T00Z_MSC_GDPS_Pressure_PVU-1.5_LatLon0.15_PT216H.grib2 2026-04-22 04:48 5.8M
20260422T00Z_MSC_GDPS_Pressure_PVU-1_LatLon0.15_PT216H.grib2 2026-04-22 04:48 6.0M
20260422T00Z_MSC_GDPS_Pressure_PVU-2_LatLon0.15_PT216H.grib2 2026-04-22 04:48 5.7M
20260422T00Z_MSC_GDPS_Pressure_Sfc_LatLon0.15_PT216H.grib2 2026-04-22 04:48 1.1M
20260422T00Z_MSC_GDPS_RadiativeTemp_Sfc_LatLon0.15_PT216H.grib2 2026-04-22 04:48 650K
20260422T00Z_MSC_GDPS_Rain-Accum12h_Sfc_LatLon0.15_PT216H.grib2 2026-04-22 04:48 2.9M
20260422T00Z_MSC_GDPS_Rain-Accum24h_Sfc_LatLon0.15_PT216H.grib2 2026-04-22 04:48 3.3M
20260422T00Z_MSC_GDPS_Rain-Accum6h_Sfc_LatLon0.15_PT216H.grib2 2026-04-22 04:48 2.4M
20260422T00Z_MSC_GDPS_Rain-Accum_Sfc_LatLon0.15_PT216H.grib2 2026-04-22 04:48 4.3M
20260422T00Z_MSC_GDPS_RelativeHumidity_AGL-2m_LatLon0.15_PT216H.grib2 2026-04-22 04:48 1.0M
20260422T00Z_MSC_GDPS_RelativeHumidity_IsbL-0010_LatLon0.15_PT216H.grib2 2026-04-22 04:48 246K
20260422T00Z_MSC_GDPS_RelativeHumidity_IsbL-0020_LatLon0.15_PT216H.grib2 2026-04-22 04:48 209K
20260422T00Z_MSC_GDPS_RelativeHumidity_IsbL-0030_LatLon0.15_PT216H.grib2 2026-04-22 04:48 254K
20260422T00Z_MSC_GDPS_RelativeHumidity_IsbL-0050_LatLon0.15_PT216H.grib2 2026-04-22 04:48 414K
20260422T00Z_MSC_GDPS_RelativeHumidity_IsbL-0100_LatLon0.15_PT216H.grib2 2026-04-22 04:48 489K
20260422T00Z_MSC_GDPS_RelativeHumidity_IsbL-0150_LatLon0.15_PT216H.grib2 2026-04-22 04:48 655K
20260422T00Z_MSC_GDPS_RelativeHumidity_IsbL-0175_LatLon0.15_PT216H.grib2 2026-04-22 04:48 780K
20260422T00Z_MSC_GDPS_RelativeHumidity_IsbL-0200_LatLon0.15_PT216H.grib2 2026-04-22 04:48 705K
20260422T00Z_MSC_GDPS_RelativeHumidity_IsbL-0225_LatLon0.15_PT216H.grib2 2026-04-22 04:48 797K
20260422T00Z_MSC_GDPS_RelativeHumidity_IsbL-0250_LatLon0.15_PT216H.grib2 2026-04-22 04:48 870K
20260422T00Z_MSC_GDPS_RelativeHumidity_IsbL-0275_LatLon0.15_PT216H.grib2 2026-04-22 04:48 889K
20260422T00Z_MSC_GDPS_RelativeHumidity_IsbL-0300_LatLon0.15_PT216H.grib2 2026-04-22 04:48 926K
20260422T00Z_MSC_GDPS_RelativeHumidity_IsbL-0350_LatLon0.15_PT216H.grib2 2026-04-22 04:48 938K
20260422T00Z_MSC_GDPS_RelativeHumidity_IsbL-0400_LatLon0.15_PT216H.grib2 2026-04-22 04:48 959K
20260422T00Z_MSC_GDPS_RelativeHumidity_IsbL-0450_LatLon0.15_PT216H.grib2 2026-04-22 04:48 1.0M
20260422T00Z_MSC_GDPS_RelativeHumidity_IsbL-0500_LatLon0.15_PT216H.grib2 2026-04-22 04:48 1.0M
20260422T00Z_MSC_GDPS_RelativeHumidity_IsbL-0550_LatLon0.15_PT216H.grib2 2026-04-22 04:48 1.0M
20260422T00Z_MSC_GDPS_RelativeHumidity_IsbL-0600_LatLon0.15_PT216H.grib2 2026-04-22 04:48 1.0M
20260422T00Z_MSC_GDPS_RelativeHumidity_IsbL-0650_LatLon0.15_PT216H.grib2 2026-04-22 04:48 1.1M
20260422T00Z_MSC_GDPS_RelativeHumidity_IsbL-0700_LatLon0.15_PT216H.grib2 2026-04-22 04:48 1.1M
20260422T00Z_MSC_GDPS_RelativeHumidity_IsbL-0750_LatLon0.15_PT216H.grib2 2026-04-22 04:48 1.1M
20260422T00Z_MSC_GDPS_RelativeHumidity_IsbL-0800_LatLon0.15_PT216H.grib2 2026-04-22 04:48 1.2M
20260422T00Z_MSC_GDPS_RelativeHumidity_IsbL-0850_LatLon0.15_PT216H.grib2 2026-04-22 04:48 1.3M
20260422T00Z_MSC_GDPS_RelativeHumidity_IsbL-0875_LatLon0.15_PT216H.grib2 2026-04-22 04:48 1.3M
20260422T00Z_MSC_GDPS_RelativeHumidity_IsbL-0900_LatLon0.15_PT216H.grib2 2026-04-22 04:48 1.2M
20260422T00Z_MSC_GDPS_RelativeHumidity_IsbL-0925_LatLon0.15_PT216H.grib2 2026-04-22 04:48 1.2M
20260422T00Z_MSC_GDPS_RelativeHumidity_IsbL-0950_LatLon0.15_PT216H.grib2 2026-04-22 04:48 1.2M
20260422T00Z_MSC_GDPS_RelativeHumidity_IsbL-0970_LatLon0.15_PT216H.grib2 2026-04-22 04:48 1.2M
20260422T00Z_MSC_GDPS_RelativeHumidity_IsbL-0985_LatLon0.15_PT216H.grib2 2026-04-22 04:48 1.1M
20260422T00Z_MSC_GDPS_RelativeHumidity_IsbL-1000_LatLon0.15_PT216H.grib2 2026-04-22 04:48 1.1M
20260422T00Z_MSC_GDPS_RelativeHumidity_IsbL-1015_LatLon0.15_PT216H.grib2 2026-04-22 04:48 1.0M
20260422T00Z_MSC_GDPS_RelativeVorticity_IsbL-0200_LatLon0.15_PT216H.grib2 2026-04-22 04:48 1.5M
20260422T00Z_MSC_GDPS_RelativeVorticity_IsbL-0250_LatLon0.15_PT216H.grib2 2026-04-22 04:48 1.3M
20260422T00Z_MSC_GDPS_RelativeVorticity_IsbL-0500_LatLon0.15_PT216H.grib2 2026-04-22 04:48 1.4M
20260422T00Z_MSC_GDPS_RelativeVorticity_IsbL-0700_LatLon0.15_PT216H.grib2 2026-04-22 04:48 1.3M
20260422T00Z_MSC_GDPS_RelativeVorticity_IsbL-0850_LatLon0.15_PT216H.grib2 2026-04-22 04:48 1.6M
20260422T00Z_MSC_GDPS_Runoff-Accum_Sfc_LatLon0.15_PT216H.grib2 2026-04-22 04:48 131K
20260422T00Z_MSC_GDPS_SensibleHeatNetFlux_Sfc_LatLon0.15_PT216H.grib2 2026-04-22 04:48 605K
20260422T00Z_MSC_GDPS_ShowalterIndex_IsbL-0500_LatLon0.15_PT216H.grib2 2026-04-22 04:48 6.2M
20260422T00Z_MSC_GDPS_Snow-Accum12h_Sfc_LatLon0.15_PT216H.grib2 2026-04-22 04:48 1.6M
20260422T00Z_MSC_GDPS_Snow-Accum24h_Sfc_LatLon0.15_PT216H.grib2 2026-04-22 04:48 1.7M
20260422T00Z_MSC_GDPS_Snow-Accum6h_Sfc_LatLon0.15_PT216H.grib2 2026-04-22 04:48 1.5M
20260422T00Z_MSC_GDPS_Snow-Accum_Sfc_LatLon0.15_PT216H.grib2 2026-04-22 04:48 2.0M
20260422T00Z_MSC_GDPS_SnowDensity_Sfc_LatLon0.15_PT216H.grib2 2026-04-22 04:48 277K
20260422T00Z_MSC_GDPS_SnowDepth_Sfc_LatLon0.15_PT216H.grib2 2026-04-22 04:48 1.8M
20260422T00Z_MSC_GDPS_SoilTemp_DBS-0to10cm_LatLon0.15_PT216H.grib2 2026-04-22 04:48 511K
20260422T00Z_MSC_GDPS_SoilTemp_Sfc_LatLon0.15_PT216H.grib2 2026-04-22 04:48 563K
20260422T00Z_MSC_GDPS_SoilVolumetricIceContent_Sfc_LatLon0.15_PT216H.grib2 2026-04-22 04:48 208K
20260422T00Z_MSC_GDPS_SoilVolumetricWaterContent_DBS-0to10cm_LatLon0.15_PT216H.grib2 2026-04-22 04:48 584K
20260422T00Z_MSC_GDPS_SoilVolumetricWaterContent_DBS-0to1cm_LatLon0.15_PT216H.grib2 2026-04-22 04:48 657K
20260422T00Z_MSC_GDPS_SpecificHumidity_AGL-120m_LatLon0.15_PT216H.grib2 2026-04-22 04:48 1.1M
20260422T00Z_MSC_GDPS_SpecificHumidity_AGL-2m_LatLon0.15_PT216H.grib2 2026-04-22 04:48 1.2M
20260422T00Z_MSC_GDPS_SpecificHumidity_AGL-40m_LatLon0.15_PT216H.grib2 2026-04-22 04:48 1.1M
20260422T00Z_MSC_GDPS_SpecificHumidity_AGL-80m_LatLon0.15_PT216H.grib2 2026-04-22 04:48 1.1M
20260422T00Z_MSC_GDPS_SpecificHumidity_IsbL-0001_LatLon0.15_PT216H.grib2 2026-04-22 04:48 1.1M
20260422T00Z_MSC_GDPS_SpecificHumidity_IsbL-0005_LatLon0.15_PT216H.grib2 2026-04-22 04:48 1.2M
20260422T00Z_MSC_GDPS_SpecificHumidity_IsbL-0010_LatLon0.15_PT216H.grib2 2026-04-22 04:48 1.1M
20260422T00Z_MSC_GDPS_SpecificHumidity_IsbL-0020_LatLon0.15_PT216H.grib2 2026-04-22 04:48 1.2M
20260422T00Z_MSC_GDPS_SpecificHumidity_IsbL-0030_LatLon0.15_PT216H.grib2 2026-04-22 04:48 1.4M
20260422T00Z_MSC_GDPS_SpecificHumidity_IsbL-0050_LatLon0.15_PT216H.grib2 2026-04-22 04:48 1.2M
20260422T00Z_MSC_GDPS_SpecificHumidity_IsbL-0100_LatLon0.15_PT216H.grib2 2026-04-22 04:48 1.3M
20260422T00Z_MSC_GDPS_SpecificHumidity_IsbL-0150_LatLon0.15_PT216H.grib2 2026-04-22 04:48 1.2M
20260422T00Z_MSC_GDPS_SpecificHumidity_IsbL-0175_LatLon0.15_PT216H.grib2 2026-04-22 04:48 1.2M
20260422T00Z_MSC_GDPS_SpecificHumidity_IsbL-0200_LatLon0.15_PT216H.grib2 2026-04-22 04:48 1.3M
20260422T00Z_MSC_GDPS_SpecificHumidity_IsbL-0225_LatLon0.15_PT216H.grib2 2026-04-22 04:48 1.3M
20260422T00Z_MSC_GDPS_SpecificHumidity_IsbL-0250_LatLon0.15_PT216H.grib2 2026-04-22 04:48 1.4M
20260422T00Z_MSC_GDPS_SpecificHumidity_IsbL-0275_LatLon0.15_PT216H.grib2 2026-04-22 04:48 1.3M
20260422T00Z_MSC_GDPS_SpecificHumidity_IsbL-0300_LatLon0.15_PT216H.grib2 2026-04-22 04:48 1.2M
20260422T00Z_MSC_GDPS_SpecificHumidity_IsbL-0350_LatLon0.15_PT216H.grib2 2026-04-22 04:48 1.2M
20260422T00Z_MSC_GDPS_SpecificHumidity_IsbL-0400_LatLon0.15_PT216H.grib2 2026-04-22 04:48 1.4M
20260422T00Z_MSC_GDPS_SpecificHumidity_IsbL-0450_LatLon0.15_PT216H.grib2 2026-04-22 04:48 1.6M
20260422T00Z_MSC_GDPS_SpecificHumidity_IsbL-0500_LatLon0.15_PT216H.grib2 2026-04-22 04:48 1.4M
20260422T00Z_MSC_GDPS_SpecificHumidity_IsbL-0550_LatLon0.15_PT216H.grib2 2026-04-22 04:48 1.6M
20260422T00Z_MSC_GDPS_SpecificHumidity_IsbL-0600_LatLon0.15_PT216H.grib2 2026-04-22 04:48 1.7M
20260422T00Z_MSC_GDPS_SpecificHumidity_IsbL-0650_LatLon0.15_PT216H.grib2 2026-04-22 04:48 1.5M
20260422T00Z_MSC_GDPS_SpecificHumidity_IsbL-0700_LatLon0.15_PT216H.grib2 2026-04-22 04:48 1.6M
20260422T00Z_MSC_GDPS_SpecificHumidity_IsbL-0750_LatLon0.15_PT216H.grib2 2026-04-22 04:48 1.7M
20260422T00Z_MSC_GDPS_SpecificHumidity_IsbL-0800_LatLon0.15_PT216H.grib2 2026-04-22 04:48 1.8M
20260422T00Z_MSC_GDPS_SpecificHumidity_IsbL-0850_LatLon0.15_PT216H.grib2 2026-04-22 04:48 1.9M
20260422T00Z_MSC_GDPS_SpecificHumidity_IsbL-0875_LatLon0.15_PT216H.grib2 2026-04-22 04:48 1.9M
20260422T00Z_MSC_GDPS_SpecificHumidity_IsbL-0900_LatLon0.15_PT216H.grib2 2026-04-22 04:48 1.9M
20260422T00Z_MSC_GDPS_SpecificHumidity_IsbL-0925_LatLon0.15_PT216H.grib2 2026-04-22 04:48 1.6M
20260422T00Z_MSC_GDPS_SpecificHumidity_IsbL-0950_LatLon0.15_PT216H.grib2 2026-04-22 04:48 1.5M
20260422T00Z_MSC_GDPS_SpecificHumidity_IsbL-0970_LatLon0.15_PT216H.grib2 2026-04-22 04:48 1.5M
20260422T00Z_MSC_GDPS_SpecificHumidity_IsbL-0985_LatLon0.15_PT216H.grib2 2026-04-22 04:48 1.5M
20260422T00Z_MSC_GDPS_SpecificHumidity_IsbL-1000_LatLon0.15_PT216H.grib2 2026-04-22 04:48 1.5M
20260422T00Z_MSC_GDPS_SpecificHumidity_IsbL-1015_LatLon0.15_PT216H.grib2 2026-04-22 04:48 1.4M
20260422T00Z_MSC_GDPS_SpecificHumidity_Sfc_LatLon0.15_PT216H.grib2 2026-04-22 04:48 629K
20260422T00Z_MSC_GDPS_Thickness_IsbL-0850to0700_LatLon0.15_PT216H.grib2 2026-04-22 04:48 471K
20260422T00Z_MSC_GDPS_Thickness_IsbL-1000to0500_LatLon0.15_PT216H.grib2 2026-04-22 04:48 375K
20260422T00Z_MSC_GDPS_Thickness_IsbL-1000to0850_LatLon0.15_PT216H.grib2 2026-04-22 04:48 492K
20260422T00Z_MSC_GDPS_TotalCloudCover_Sfc_LatLon0.15_PT216H.grib2 2026-04-22 04:48 825K
20260422T00Z_MSC_GDPS_TotalTotalsIndex_Sfc_LatLon0.15_PT216H.grib2 2026-04-22 04:48 6.2M
20260422T00Z_MSC_GDPS_UVIndex-ClearSky_Sfc_LatLon0.15_PT216H.grib2 2026-04-22 05:00 1.0M
20260422T00Z_MSC_GDPS_UVIndex_Sfc_LatLon0.15_PT216H.grib2 2026-04-22 05:00 1.5M
20260422T00Z_MSC_GDPS_UpwardLongwaveRadiationFlux_NTAtm_LatLon0.15_PT216H.grib2 2026-04-22 04:48 833K
20260422T00Z_MSC_GDPS_VerticalVelocity_IsbL-0200_LatLon0.15_PT216H.grib2 2026-04-22 04:48 938K
20260422T00Z_MSC_GDPS_VerticalVelocity_IsbL-0250_LatLon0.15_PT216H.grib2 2026-04-22 04:48 1.1M
20260422T00Z_MSC_GDPS_VerticalVelocity_IsbL-0500_LatLon0.15_PT216H.grib2 2026-04-22 04:48 1.0M
20260422T00Z_MSC_GDPS_VerticalVelocity_IsbL-0600_LatLon0.15_PT216H.grib2 2026-04-22 04:48 1.1M
20260422T00Z_MSC_GDPS_VerticalVelocity_IsbL-0700_LatLon0.15_PT216H.grib2 2026-04-22 04:48 1.1M
20260422T00Z_MSC_GDPS_VerticalVelocity_IsbL-0850_LatLon0.15_PT216H.grib2 2026-04-22 04:48 1.3M
20260422T00Z_MSC_GDPS_WindChill_Sfc_LatLon0.15_PT216H.grib2 2026-04-22 04:48 5.3M
20260422T00Z_MSC_GDPS_WindDir_AGL-10m_LatLon0.15_PT216H.grib2 2026-04-22 04:48 1.3M
20260422T00Z_MSC_GDPS_WindDir_AGL-120m_LatLon0.15_PT216H.grib2 2026-04-22 04:48 1.3M
20260422T00Z_MSC_GDPS_WindDir_AGL-40m_LatLon0.15_PT216H.grib2 2026-04-22 04:48 1.4M
20260422T00Z_MSC_GDPS_WindDir_AGL-80m_LatLon0.15_PT216H.grib2 2026-04-22 04:48 1.4M
20260422T00Z_MSC_GDPS_WindDir_IsbL-0001_LatLon0.15_PT216H.grib2 2026-04-22 04:48 705K
20260422T00Z_MSC_GDPS_WindDir_IsbL-0005_LatLon0.15_PT216H.grib2 2026-04-22 04:48 788K
20260422T00Z_MSC_GDPS_WindDir_IsbL-0010_LatLon0.15_PT216H.grib2 2026-04-22 04:48 843K
20260422T00Z_MSC_GDPS_WindDir_IsbL-0020_LatLon0.15_PT216H.grib2 2026-04-22 04:48 927K
20260422T00Z_MSC_GDPS_WindDir_IsbL-0030_LatLon0.15_PT216H.grib2 2026-04-22 04:48 907K
20260422T00Z_MSC_GDPS_WindDir_IsbL-0050_LatLon0.15_PT216H.grib2 2026-04-22 04:48 939K
20260422T00Z_MSC_GDPS_WindDir_IsbL-0100_LatLon0.15_PT216H.grib2 2026-04-22 04:48 1.0M
20260422T00Z_MSC_GDPS_WindDir_IsbL-0150_LatLon0.15_PT216H.grib2 2026-04-22 04:48 1.0M
20260422T00Z_MSC_GDPS_WindDir_IsbL-0175_LatLon0.15_PT216H.grib2 2026-04-22 04:48 1.0M
20260422T00Z_MSC_GDPS_WindDir_IsbL-0200_LatLon0.15_PT216H.grib2 2026-04-22 04:48 1.1M
20260422T00Z_MSC_GDPS_WindDir_IsbL-0225_LatLon0.15_PT216H.grib2 2026-04-22 04:48 1.1M
20260422T00Z_MSC_GDPS_WindDir_IsbL-0250_LatLon0.15_PT216H.grib2 2026-04-22 04:48 1.1M
20260422T00Z_MSC_GDPS_WindDir_IsbL-0275_LatLon0.15_PT216H.grib2 2026-04-22 04:48 1.2M
20260422T00Z_MSC_GDPS_WindDir_IsbL-0300_LatLon0.15_PT216H.grib2 2026-04-22 04:48 1.2M
20260422T00Z_MSC_GDPS_WindDir_IsbL-0350_LatLon0.15_PT216H.grib2 2026-04-22 04:48 1.2M
20260422T00Z_MSC_GDPS_WindDir_IsbL-0400_LatLon0.15_PT216H.grib2 2026-04-22 04:48 1.2M
20260422T00Z_MSC_GDPS_WindDir_IsbL-0450_LatLon0.15_PT216H.grib2 2026-04-22 04:48 1.3M
20260422T00Z_MSC_GDPS_WindDir_IsbL-0500_LatLon0.15_PT216H.grib2 2026-04-22 04:48 1.3M
20260422T00Z_MSC_GDPS_WindDir_IsbL-0550_LatLon0.15_PT216H.grib2 2026-04-22 04:48 1.4M
20260422T00Z_MSC_GDPS_WindDir_IsbL-0600_LatLon0.15_PT216H.grib2 2026-04-22 04:48 1.4M
20260422T00Z_MSC_GDPS_WindDir_IsbL-0650_LatLon0.15_PT216H.grib2 2026-04-22 04:48 1.5M
20260422T00Z_MSC_GDPS_WindDir_IsbL-0700_LatLon0.15_PT216H.grib2 2026-04-22 04:48 1.6M
20260422T00Z_MSC_GDPS_WindDir_IsbL-0750_LatLon0.15_PT216H.grib2 2026-04-22 04:48 1.7M
20260422T00Z_MSC_GDPS_WindDir_IsbL-0800_LatLon0.15_PT216H.grib2 2026-04-22 04:48 1.8M
20260422T00Z_MSC_GDPS_WindDir_IsbL-0850_LatLon0.15_PT216H.grib2 2026-04-22 04:48 1.9M
20260422T00Z_MSC_GDPS_WindDir_IsbL-0875_LatLon0.15_PT216H.grib2 2026-04-22 04:48 1.9M
20260422T00Z_MSC_GDPS_WindDir_IsbL-0900_LatLon0.15_PT216H.grib2 2026-04-22 04:48 2.0M
20260422T00Z_MSC_GDPS_WindDir_IsbL-0925_LatLon0.15_PT216H.grib2 2026-04-22 04:48 2.0M
20260422T00Z_MSC_GDPS_WindDir_IsbL-0950_LatLon0.15_PT216H.grib2 2026-04-22 04:48 2.0M
20260422T00Z_MSC_GDPS_WindDir_IsbL-0970_LatLon0.15_PT216H.grib2 2026-04-22 04:48 2.0M
20260422T00Z_MSC_GDPS_WindDir_IsbL-0985_LatLon0.15_PT216H.grib2 2026-04-22 04:48 2.0M
20260422T00Z_MSC_GDPS_WindDir_IsbL-1000_LatLon0.15_PT216H.grib2 2026-04-22 04:48 2.1M
20260422T00Z_MSC_GDPS_WindDir_IsbL-1015_LatLon0.15_PT216H.grib2 2026-04-22 04:48 2.0M
20260422T00Z_MSC_GDPS_WindGust-Max_AGL-10m_LatLon0.15_PT216H.grib2 2026-04-22 04:48 2.2M
20260422T00Z_MSC_GDPS_WindGust-Min_AGL-10m_LatLon0.15_PT216H.grib2 2026-04-22 04:48 2.2M
20260422T00Z_MSC_GDPS_WindGust_AGL-10m_LatLon0.15_PT216H.grib2 2026-04-22 04:48 2.1M
20260422T00Z_MSC_GDPS_WindSpeed_AGL-10m_LatLon0.15_PT216H.grib2 2026-04-22 04:48 1.1M
20260422T00Z_MSC_GDPS_WindSpeed_AGL-120m_LatLon0.15_PT216H.grib2 2026-04-22 04:48 1.3M
20260422T00Z_MSC_GDPS_WindSpeed_AGL-40m_LatLon0.15_PT216H.grib2 2026-04-22 04:48 1.2M
20260422T00Z_MSC_GDPS_WindSpeed_AGL-80m_LatLon0.15_PT216H.grib2 2026-04-22 04:48 1.3M
20260422T00Z_MSC_GDPS_WindSpeed_IsbL-0001_LatLon0.15_PT216H.grib2 2026-04-22 04:48 644K
20260422T00Z_MSC_GDPS_WindSpeed_IsbL-0005_LatLon0.15_PT216H.grib2 2026-04-22 04:48 605K
20260422T00Z_MSC_GDPS_WindSpeed_IsbL-0010_LatLon0.15_PT216H.grib2 2026-04-22 04:48 622K
20260422T00Z_MSC_GDPS_WindSpeed_IsbL-0020_LatLon0.15_PT216H.grib2 2026-04-22 04:48 850K
20260422T00Z_MSC_GDPS_WindSpeed_IsbL-0030_LatLon0.15_PT216H.grib2 2026-04-22 04:48 854K
20260422T00Z_MSC_GDPS_WindSpeed_IsbL-0050_LatLon0.15_PT216H.grib2 2026-04-22 04:48 903K
20260422T00Z_MSC_GDPS_WindSpeed_IsbL-0100_LatLon0.15_PT216H.grib2 2026-04-22 04:48 1.1M
20260422T00Z_MSC_GDPS_WindSpeed_IsbL-0150_LatLon0.15_PT216H.grib2 2026-04-22 04:48 1.0M
20260422T00Z_MSC_GDPS_WindSpeed_IsbL-0175_LatLon0.15_PT216H.grib2 2026-04-22 04:48 1.0M
20260422T00Z_MSC_GDPS_WindSpeed_IsbL-0200_LatLon0.15_PT216H.grib2 2026-04-22 04:48 1.1M
20260422T00Z_MSC_GDPS_WindSpeed_IsbL-0225_LatLon0.15_PT216H.grib2 2026-04-22 04:48 1.1M
20260422T00Z_MSC_GDPS_WindSpeed_IsbL-0250_LatLon0.15_PT216H.grib2 2026-04-22 04:48 1.1M
20260422T00Z_MSC_GDPS_WindSpeed_IsbL-0275_LatLon0.15_PT216H.grib2 2026-04-22 04:48 1.1M
20260422T00Z_MSC_GDPS_WindSpeed_IsbL-0300_LatLon0.15_PT216H.grib2 2026-04-22 04:48 1.1M
20260422T00Z_MSC_GDPS_WindSpeed_IsbL-0350_LatLon0.15_PT216H.grib2 2026-04-22 04:48 1.1M
20260422T00Z_MSC_GDPS_WindSpeed_IsbL-0400_LatLon0.15_PT216H.grib2 2026-04-22 04:48 1.1M
20260422T00Z_MSC_GDPS_WindSpeed_IsbL-0450_LatLon0.15_PT216H.grib2 2026-04-22 04:48 1.1M
20260422T00Z_MSC_GDPS_WindSpeed_IsbL-0500_LatLon0.15_PT216H.grib2 2026-04-22 04:48 1.1M
20260422T00Z_MSC_GDPS_WindSpeed_IsbL-0550_LatLon0.15_PT216H.grib2 2026-04-22 04:48 1.1M
20260422T00Z_MSC_GDPS_WindSpeed_IsbL-0600_LatLon0.15_PT216H.grib2 2026-04-22 04:48 1.1M
20260422T00Z_MSC_GDPS_WindSpeed_IsbL-0650_LatLon0.15_PT216H.grib2 2026-04-22 04:48 1.2M
20260422T00Z_MSC_GDPS_WindSpeed_IsbL-0700_LatLon0.15_PT216H.grib2 2026-04-22 04:48 1.5M
20260422T00Z_MSC_GDPS_WindSpeed_IsbL-0750_LatLon0.15_PT216H.grib2 2026-04-22 04:48 1.6M
20260422T00Z_MSC_GDPS_WindSpeed_IsbL-0800_LatLon0.15_PT216H.grib2 2026-04-22 04:48 1.6M
20260422T00Z_MSC_GDPS_WindSpeed_IsbL-0850_LatLon0.15_PT216H.grib2 2026-04-22 04:48 1.7M
20260422T00Z_MSC_GDPS_WindSpeed_IsbL-0875_LatLon0.15_PT216H.grib2 2026-04-22 04:48 1.8M
20260422T00Z_MSC_GDPS_WindSpeed_IsbL-0900_LatLon0.15_PT216H.grib2 2026-04-22 04:48 1.8M
20260422T00Z_MSC_GDPS_WindSpeed_IsbL-0925_LatLon0.15_PT216H.grib2 2026-04-22 04:48 1.8M
20260422T00Z_MSC_GDPS_WindSpeed_IsbL-0950_LatLon0.15_PT216H.grib2 2026-04-22 04:48 1.9M
20260422T00Z_MSC_GDPS_WindSpeed_IsbL-0970_LatLon0.15_PT216H.grib2 2026-04-22 04:48 1.9M
20260422T00Z_MSC_GDPS_WindSpeed_IsbL-0985_LatLon0.15_PT216H.grib2 2026-04-22 04:48 1.9M
20260422T00Z_MSC_GDPS_WindSpeed_IsbL-1000_LatLon0.15_PT216H.grib2 2026-04-22 04:48 1.9M
20260422T00Z_MSC_GDPS_WindSpeed_IsbL-1015_LatLon0.15_PT216H.grib2 2026-04-22 04:48 1.8M
20260422T00Z_MSC_GDPS_WindU_AGL-10m_LatLon0.15_PT216H.grib2 2026-04-22 04:48 1.3M
20260422T00Z_MSC_GDPS_WindU_AGL-120m_LatLon0.15_PT216H.grib2 2026-04-22 04:48 1.0M
20260422T00Z_MSC_GDPS_WindU_AGL-40m_LatLon0.15_PT216H.grib2 2026-04-22 04:48 1.0M
20260422T00Z_MSC_GDPS_WindU_AGL-80m_LatLon0.15_PT216H.grib2 2026-04-22 04:48 1.0M
20260422T00Z_MSC_GDPS_WindU_IsbL-0001_LatLon0.15_PT216H.grib2 2026-04-22 04:48 645K
20260422T00Z_MSC_GDPS_WindU_IsbL-0005_LatLon0.15_PT216H.grib2 2026-04-22 04:48 685K
20260422T00Z_MSC_GDPS_WindU_IsbL-0010_LatLon0.15_PT216H.grib2 2026-04-22 04:48 695K
20260422T00Z_MSC_GDPS_WindU_IsbL-0020_LatLon0.15_PT216H.grib2 2026-04-22 04:48 650K
20260422T00Z_MSC_GDPS_WindU_IsbL-0030_LatLon0.15_PT216H.grib2 2026-04-22 04:48 730K
20260422T00Z_MSC_GDPS_WindU_IsbL-0050_LatLon0.15_PT216H.grib2 2026-04-22 04:48 695K
20260422T00Z_MSC_GDPS_WindU_IsbL-0100_LatLon0.15_PT216H.grib2 2026-04-22 04:48 921K
20260422T00Z_MSC_GDPS_WindU_IsbL-0150_LatLon0.15_PT216H.grib2 2026-04-22 04:48 1.0M
20260422T00Z_MSC_GDPS_WindU_IsbL-0175_LatLon0.15_PT216H.grib2 2026-04-22 04:48 1.0M
20260422T00Z_MSC_GDPS_WindU_IsbL-0200_LatLon0.15_PT216H.grib2 2026-04-22 04:48 852K
20260422T00Z_MSC_GDPS_WindU_IsbL-0225_LatLon0.15_PT216H.grib2 2026-04-22 04:48 860K
20260422T00Z_MSC_GDPS_WindU_IsbL-0250_LatLon0.15_PT216H.grib2 2026-04-22 04:48 860K
20260422T00Z_MSC_GDPS_WindU_IsbL-0275_LatLon0.15_PT216H.grib2 2026-04-22 04:48 886K
20260422T00Z_MSC_GDPS_WindU_IsbL-0300_LatLon0.15_PT216H.grib2 2026-04-22 04:48 876K
20260422T00Z_MSC_GDPS_WindU_IsbL-0350_LatLon0.15_PT216H.grib2 2026-04-22 04:48 888K
20260422T00Z_MSC_GDPS_WindU_IsbL-0400_LatLon0.15_PT216H.grib2 2026-04-22 04:48 887K
20260422T00Z_MSC_GDPS_WindU_IsbL-0450_LatLon0.15_PT216H.grib2 2026-04-22 04:48 889K
20260422T00Z_MSC_GDPS_WindU_IsbL-0500_LatLon0.15_PT216H.grib2 2026-04-22 04:48 1.1M
20260422T00Z_MSC_GDPS_WindU_IsbL-0550_LatLon0.15_PT216H.grib2 2026-04-22 04:48 1.1M
20260422T00Z_MSC_GDPS_WindU_IsbL-0600_LatLon0.15_PT216H.grib2 2026-04-22 04:48 1.1M
20260422T00Z_MSC_GDPS_WindU_IsbL-0650_LatLon0.15_PT216H.grib2 2026-04-22 04:48 1.2M
20260422T00Z_MSC_GDPS_WindU_IsbL-0700_LatLon0.15_PT216H.grib2 2026-04-22 04:48 1.2M
20260422T00Z_MSC_GDPS_WindU_IsbL-0750_LatLon0.15_PT216H.grib2 2026-04-22 04:48 1.3M
20260422T00Z_MSC_GDPS_WindU_IsbL-0800_LatLon0.15_PT216H.grib2 2026-04-22 04:48 1.4M
20260422T00Z_MSC_GDPS_WindU_IsbL-0850_LatLon0.15_PT216H.grib2 2026-04-22 04:48 1.4M
20260422T00Z_MSC_GDPS_WindU_IsbL-0875_LatLon0.15_PT216H.grib2 2026-04-22 04:48 1.5M
20260422T00Z_MSC_GDPS_WindU_IsbL-0900_LatLon0.15_PT216H.grib2 2026-04-22 04:48 1.5M
20260422T00Z_MSC_GDPS_WindU_IsbL-0925_LatLon0.15_PT216H.grib2 2026-04-22 04:48 1.5M
20260422T00Z_MSC_GDPS_WindU_IsbL-0950_LatLon0.15_PT216H.grib2 2026-04-22 04:48 1.4M
20260422T00Z_MSC_GDPS_WindU_IsbL-0970_LatLon0.15_PT216H.grib2 2026-04-22 04:48 1.4M
20260422T00Z_MSC_GDPS_WindU_IsbL-0985_LatLon0.15_PT216H.grib2 2026-04-22 04:48 1.4M
20260422T00Z_MSC_GDPS_WindU_IsbL-1000_LatLon0.15_PT216H.grib2 2026-04-22 04:48 1.4M
20260422T00Z_MSC_GDPS_WindU_IsbL-1015_LatLon0.15_PT216H.grib2 2026-04-22 04:48 1.4M
20260422T00Z_MSC_GDPS_WindV_AGL-10m_LatLon0.15_PT216H.grib2 2026-04-22 04:48 1.3M
20260422T00Z_MSC_GDPS_WindV_AGL-120m_LatLon0.15_PT216H.grib2 2026-04-22 04:48 1.0M
20260422T00Z_MSC_GDPS_WindV_AGL-40m_LatLon0.15_PT216H.grib2 2026-04-22 04:48 1.0M
20260422T00Z_MSC_GDPS_WindV_AGL-80m_LatLon0.15_PT216H.grib2 2026-04-22 04:48 1.0M
20260422T00Z_MSC_GDPS_WindV_IsbL-0001_LatLon0.15_PT216H.grib2 2026-04-22 04:48 776K
20260422T00Z_MSC_GDPS_WindV_IsbL-0005_LatLon0.15_PT216H.grib2 2026-04-22 04:48 756K
20260422T00Z_MSC_GDPS_WindV_IsbL-0010_LatLon0.15_PT216H.grib2 2026-04-22 04:48 877K
20260422T00Z_MSC_GDPS_WindV_IsbL-0020_LatLon0.15_PT216H.grib2 2026-04-22 04:48 928K
20260422T00Z_MSC_GDPS_WindV_IsbL-0030_LatLon0.15_PT216H.grib2 2026-04-22 04:48 928K
20260422T00Z_MSC_GDPS_WindV_IsbL-0050_LatLon0.15_PT216H.grib2 2026-04-22 04:48 1.0M
20260422T00Z_MSC_GDPS_WindV_IsbL-0100_LatLon0.15_PT216H.grib2 2026-04-22 04:48 851K
20260422T00Z_MSC_GDPS_WindV_IsbL-0150_LatLon0.15_PT216H.grib2 2026-04-22 04:48 1.0M
20260422T00Z_MSC_GDPS_WindV_IsbL-0175_LatLon0.15_PT216H.grib2 2026-04-22 04:48 1.0M
20260422T00Z_MSC_GDPS_WindV_IsbL-0200_LatLon0.15_PT216H.grib2 2026-04-22 04:48 848K
20260422T00Z_MSC_GDPS_WindV_IsbL-0225_LatLon0.15_PT216H.grib2 2026-04-22 04:48 856K
20260422T00Z_MSC_GDPS_WindV_IsbL-0250_LatLon0.15_PT216H.grib2 2026-04-22 04:48 854K
20260422T00Z_MSC_GDPS_WindV_IsbL-0275_LatLon0.15_PT216H.grib2 2026-04-22 04:48 936K
20260422T00Z_MSC_GDPS_WindV_IsbL-0300_LatLon0.15_PT216H.grib2 2026-04-22 04:48 926K
20260422T00Z_MSC_GDPS_WindV_IsbL-0350_LatLon0.15_PT216H.grib2 2026-04-22 04:48 879K
20260422T00Z_MSC_GDPS_WindV_IsbL-0400_LatLon0.15_PT216H.grib2 2026-04-22 04:48 877K
20260422T00Z_MSC_GDPS_WindV_IsbL-0450_LatLon0.15_PT216H.grib2 2026-04-22 04:48 876K
20260422T00Z_MSC_GDPS_WindV_IsbL-0500_LatLon0.15_PT216H.grib2 2026-04-22 04:48 1.1M
20260422T00Z_MSC_GDPS_WindV_IsbL-0550_LatLon0.15_PT216H.grib2 2026-04-22 04:48 1.1M
20260422T00Z_MSC_GDPS_WindV_IsbL-0600_LatLon0.15_PT216H.grib2 2026-04-22 04:48 1.1M
20260422T00Z_MSC_GDPS_WindV_IsbL-0650_LatLon0.15_PT216H.grib2 2026-04-22 04:48 1.2M
20260422T00Z_MSC_GDPS_WindV_IsbL-0700_LatLon0.15_PT216H.grib2 2026-04-22 04:48 1.2M
20260422T00Z_MSC_GDPS_WindV_IsbL-0750_LatLon0.15_PT216H.grib2 2026-04-22 04:48 1.3M
20260422T00Z_MSC_GDPS_WindV_IsbL-0800_LatLon0.15_PT216H.grib2 2026-04-22 04:48 1.3M
20260422T00Z_MSC_GDPS_WindV_IsbL-0850_LatLon0.15_PT216H.grib2 2026-04-22 04:48 1.4M
20260422T00Z_MSC_GDPS_WindV_IsbL-0875_LatLon0.15_PT216H.grib2 2026-04-22 04:48 1.5M
20260422T00Z_MSC_GDPS_WindV_IsbL-0900_LatLon0.15_PT216H.grib2 2026-04-22 04:48 1.5M
20260422T00Z_MSC_GDPS_WindV_IsbL-0925_LatLon0.15_PT216H.grib2 2026-04-22 04:48 1.5M
20260422T00Z_MSC_GDPS_WindV_IsbL-0950_LatLon0.15_PT216H.grib2 2026-04-22 04:48 1.4M
20260422T00Z_MSC_GDPS_WindV_IsbL-0970_LatLon0.15_PT216H.grib2 2026-04-22 04:48 1.4M
20260422T00Z_MSC_GDPS_WindV_IsbL-0985_LatLon0.15_PT216H.grib2 2026-04-22 04:48 1.4M
20260422T00Z_MSC_GDPS_WindV_IsbL-1000_LatLon0.15_PT216H.grib2 2026-04-22 04:48 1.4M
20260422T00Z_MSC_GDPS_WindV_IsbL-1015_LatLon0.15_PT216H.grib2 2026-04-22 04:48 1.3M